SCP
0 0 0 0 0 0 0 0 0 0 0 0 0 0 0 0 0 0 0 0 0 0 0 0 0 0 0 0 0 0 0 0 0 0 0 0 0 0 0 0 0 0 0
0 0 0 0 0 0 0 0 0 0 0 0 0 0 0 0 0 0 0 0 0 0 0 0 0 0 0 0 0 0 0 0 0 0 0 0 0 0 0 0 0 0 0
0 0 0 0 0 0 0 0 0 0 0 0 0 0 0 0 0 0 0 0 0 0 0 0 0 0 0 0 0 0 0 0 0 0 0 0 0 0 0 0 0 0 0
0 0 0 0 0 0 0 0 0 0 0 0 0 0 0 0 0 0 0 0 0 0 0 0 0 0 0 0 0 0 0 0 0 0 0 0 0 0 0 0 0 0 0
0 0 0 0 0 0 0 0 0 0 0 0 0 0 0 0 0 0 0 0 0 0 0 0 0 0 0 0 0 0 0 0 0 0 0 0 0 0 0 0 0 0 0
0 0 0 0 0 0 0 0 0 0 0 0 0 0 0 0 0 0 0 0 0 0 0 0 0 0 0 0 0 0 0 0 0 0 0 0 0 0 0 0 0 0 0
0 0 0 0 0 0 0 0 0 0 0 0 0 0 0 0 0 0 0 0 0 0 0 0 0 0 0 0 0 0 0 0 0 0 0 0 0 0 0 0 0 0 0
0 0 0 0 0 0 0 0 0 0 0 0 0 0 0 0 0 0 0 0 0 0 0 0 0 0 0 0 0 0 0 0 -0 0 0 0 0 0 0 0 0 0 0
0 0 0 0 0 0 0 0 0 0 0 0 0 0 0 0 0 0 0 0 0 0 0 0 0 0 0 0 0 0 -0 -0 0 0 0 0 0 0 0 0 0 0 0
0 0 0 0 0 0 0 0 0 0 0 0 0 0 0 0 0 0 0 0 0 0 0 0 0 0 0 0 -0 0 -0 -0 -0 0 0 0 0 0 0 0 0 0 0
0 0 0 0 0 0 0 0 0 0 0 0 0 0 0 0 0 0 0 0 0 0 0 0 0 0 0 0 -0 -0 -0 -0 -0 0 0 0 0 0 0 0 0 0 0
0 0 0 0 0 0 0 0 0 0 0 0 0 0 0 0 0 0 0 0 0 0 0 -0 0 0 0 -0 -0 -0 -0 -0 0 0 0 0 0 0 0 0 0 0 0
0 0 0 0 0 0 0 0 0 0 0 0 0 0 0 0 0 0 0 0 0 0 0 0 0 0 -0 -0 0 0 -0 -0 -0 0 0 0 0 0 0 0 0 0 0
-0 0 0 0 0 0 0 0 0 0 0 0 0 0 0 0 0 0 0 0 0 0 0 0 0 0 -0 0 0 0 -0 -0 -0 -0 0 0 0 0 0 0 0 0 0
0 0 0 0 0 0 0 0 0 0 0 0 0 0 0 0 0 0 0 0 0 0 0 0 0 0 0 0 0 -0 0 0 -0 -0 0 0 0 0 0 0 0 0 0
-0 0 0 0 0 0 0 0 0 0 0 0 0 0 0 0 0 0 0 0 0 0 0 0 0 0 -0 0 0 -0 -0 -0 0 0 0 0 0 0 0 0 0 0 0
-0 -0 0 0 0 0 0 0 0 0 0 0 0 0 0 0 0 0 0 0 0 0 0 0 0 -0 -0 0 0 -0 -0 -0 0 0 0 0 0 0 0 0 0 0 0
-0 -0 -0 0 0 0 0 0 0 0 0 0 0 0 0 0 0 0 0 0 0 0 0 0 -0 -0 -0 -0 -0 -0 -0 -0 -0 0 0 0 0 0 0 0 0 0 0
-0 -0 -0 0 0 0 0 0 0 0 0 0 0 0 0 0 0 0 0 0 0 0 0 0 0 0 0 0 -0 -0 -0 -0 -0 0 0 0 -0 -0 0 0 0 0 0
-0 -0 0 0 0 0 0 0 0 0 0 0 0 0 0 0 0 0 0 0 0 -0 -0 -0 -0 0 -0 0 0 -0 -0 -0 -0 -0 -0 0 0 -0 -0 -0 -0 -0 0
0 0 0 0 0 0 0 0 0 0 0 0 0 0 -0 0 0 0 0 0 0 -0 -0 -0 0 -0 -0 0 0 0 -0 0 -0 -0 -0 -0 -0 0 -0 -0 -0 -0 -0
0 0 0 0 0 0 0 0 0 0 0 0 0 0 -0 0 0 0 0 0 0 0 -0 -0 -0 0 0 -0 -0 -0 -0 -0 -0 -0 -0 -0 -0 -0 -0 -0 -0 -0 -0
0 0 0 0 0 0 0 0 0 0 0 0 0 0 0 0 0 0 0 0 0 0 0 -0 -0 -0 0 0 0 -0 -0 -0 -0 -0 -0 -0 -0 -0 -0 -0 -0 -0 -0
0 0 0 0 0 0 0 0 0 0 0 0 0 0 0 0 0 0 -0 -0 -0 0 0 0 -0 0 0 0 0 0 0 -0 -0 -0 -0 -0 -0 -0 -0 -0 -0 -0 -0
0 0 0 0 0 0 0 0 0 0 0 0 0 0 0 0 0 0 -0 -0 -0 -0 0 0 0 -0 0 -0 -0 -0 -0 -0 -0 -0 0 -0 -0 -0 -0 -0 -0 -0 -0
0 0 0 0 0 0 0 0 0 0 0 0 0 0 0 0 0 0 0 0 -0 -0 -0 -0 -0 -0 -0 -0 -0 -0 -0 -0 -0 -0 0 -0 -0 -0 -0 -0 -0 -0 -0
Wind_Speed_500mb
40 38 35 39 48 44 40 26 26 28 26 25 20 18 14 15 20 22 21 17 17 20 24 28 34 36 34 34 39 48 52 49 53 68 64 60 58 55 50 50 48 48 47
44 41 41 57 48 40 35 33 29 32 28 21 16 10 12 17 17 15 15 18 21 22 28 33 36 36 31 38 46 50 52 55 59 67 67 60 55 53 54 56 57 57 61
52 46 50 52 47 43 45 45 35 26 22 16 11 8 9 8 14 17 18 20 23 27 33 36 37 31 32 40 46 50 54 58 60 63 70 62 58 57 64 67 63 62 66
64 61 58 56 53 53 47 38 31 23 15 8 6 4 8 15 18 19 21 22 26 31 31 33 33 36 41 45 48 47 51 57 60 58 58 65 63 65 61 58 59 61 71
74 69 67 60 53 44 39 33 25 16 8 4 9 15 20 22 21 23 26 31 31 30 30 30 34 37 40 44 49 50 52 56 59 58 57 58 59 59 58 62 62 67 70
75 73 65 57 50 45 35 26 18 12 11 15 19 23 24 24 24 25 30 33 28 29 27 31 38 41 39 43 50 53 57 55 57 56 59 55 54 51 56 59 58 66 60
67 65 59 53 45 39 31 24 20 19 21 23 26 25 23 22 22 25 27 28 29 32 33 40 43 45 49 52 54 56 57 57 52 50 58 50 51 49 51 55 53 54 60
63 58 51 45 42 37 31 27 27 28 27 29 26 23 19 19 18 20 23 25 31 34 37 40 45 50 53 56 57 57 60 56 59 58 49 44 40 42 44 50 52 53 61
61 56 50 44 42 37 34 35 34 31 31 28 27 22 17 14 14 15 18 22 29 33 38 41 46 49 52 55 58 58 62 64 68 62 49 41 33 33 40 47 50 55 59
60 55 50 45 41 39 39 39 36 32 30 28 23 19 17 15 13 16 22 20 25 30 36 41 46 49 51 54 57 60 62 66 71 74 66 52 46 43 47 49 48 49 47
57 53 50 46 43 42 39 36 31 28 26 24 21 18 18 18 19 26 26 24 25 28 32 40 46 49 49 50 52 55 60 65 66 72 70 58 54 55 59 53 43 35 42
56 53 50 47 45 39 33 32 28 25 22 21 18 18 21 22 25 28 27 25 27 32 35 38 42 43 43 45 45 48 52 59 65 73 71 66 63 66 69 59 45 34 29
56 55 52 48 44 39 35 33 30 26 24 24 22 23 26 29 31 31 30 30 29 32 35 35 36 35 36 40 41 47 57 63 67 71 73 70 68 66 68 66 55 45 40
58 56 53 49 49 46 44 42 40 40 38 35 32 30 28 28 31 35 34 32 33 36 35 36 33 34 44 38 40 50 58 64 67 69 68 70 70 70 72 71 71 64 57
59 59 57 53 50 48 47 45 41 40 35 34 34 34 31 35 38 37 38 39 40 35 33 36 42 47 47 47 45 50 56 61 65 67 70 71 72 75 77 74 68 68 66
61 58 54 51 47 43 42 44 45 43 41 42 42 38 37 38 33 35 35 33 30 28 36 46 53 56 55 55 54 51 56 62 65 67 68 69 71 73 75 75 75 73 72
56 53 49 46 41 37 35 37 42 38 39 42 41 41 41 37 35 35 31 32 33 38 49 55 56 57 57 55 56 57 56 59 63 67 69 68 68 69 72 73 74 73 79
52 49 47 43 39 36 33 30 28 27 29 36 42 42 41 37 34 31 32 38 42 49 54 55 56 57 57 56 56 57 57 57 57 63 68 69 68 68 70 71 71 70 69
51 48 44 42 39 37 34 33 32 31 31 30 29 36 37 33 35 38 41 47 49 52 54 54 54 54 56 57 57 57 59 62 63 63 63 67 69 68 67 67 66 65 64
46 42 42 41 38 36 35 34 31 30 31 30 33 36 31 33 40 45 47 50 50 51 52 53 53 54 55 57 58 59 61 63 65 66 66 66 65 61 62 64 64 64 61
42 40 39 38 38 36 35 35 33 31 30 32 36 37 34 33 39 42 44 47 48 49 50 51 52 54 55 56 58 59 62 63 65 66 66 65 64 60 55 62 63 61 59
41 39 38 39 38 37 35 33 30 28 28 29 29 31 34 34 40 39 41 44 45 46 48 50 51 53 55 57 58 59 61 63 65 66 65 63 62 60 55 53 61 61 60
43 43 41 40 37 34 33 30 29 26 26 28 28 28 29 35 38 38 38 40 41 43 45 47 49 51 53 53 56 57 58 59 62 61 61 60 57 60 55 53 52 61 59
41 38 36 35 33 31 29 27 27 25 25 25 27 30 29 31 35 36 37 38 40 42 43 45 47 49 51 52 53 54 54 52 53 53 55 54 55 57 54 53 50 53 59
36 35 33 32 29 28 26 23 23 22 23 23 24 27 26 29 31 33 34 36 38 40 42 43 46 47 49 49 50 49 48 48 49 49 51 52 52 56 54 50 49 47 53
34 32 29 27 26 25 23 21 20 20 21 22 23 26 25 27 29 31 32 34 35 37 38 40 41 42 43 46 47 47 49 49 48 46 50 51 53 54 54 52 51 47 48
Wind_Direction_500mb
174 175 180 180 179 176 178 156 165 177 193 198 221 243 261 293 309 312 320 339 11 12 4 356 353 345 351 358 351 352 354 341 325 334 335 338 340 341 338 337 331 326 321
173 173 168 166 170 175 170 173 182 183 187 202 216 245 289 303 314 350 30 38 30 11 2 1 356 358 9 7 10 8 360 350 337 329 340 345 348 344 342 342 341 338 326
160 158 154 157 162 157 160 169 168 176 178 184 207 259 298 356 51 63 58 39 26 16 7 8 17 26 18 9 3 360 356 354 350 344 343 340 339 343 342 342 340 335 334
145 140 138 143 150 154 158 163 164 168 184 209 263 323 52 75 78 68 52 39 22 15 22 32 24 21 13 8 2 355 349 348 346 341 340 344 342 344 344 339 340 349 347
141 141 143 147 149 149 150 150 154 156 161 122 82 88 94 95 84 70 49 35 33 36 35 28 28 20 15 10 3 360 352 350 345 340 342 342 343 345 345 344 343 348 353
143 142 145 146 145 141 142 143 136 130 113 99 106 110 110 100 79 57 43 34 38 32 28 23 20 19 21 13 7 1 1 357 352 346 348 345 343 347 349 348 349 348 339
143 140 140 139 138 135 132 129 123 115 108 114 119 123 115 97 73 53 43 44 41 37 30 28 22 23 21 16 11 7 4 7 5 357 350 348 346 351 351 349 348 346 343
139 135 135 135 131 127 125 120 111 106 111 116 117 116 98 83 67 50 38 40 37 32 28 23 20 18 13 9 11 10 9 10 12 6 357 353 353 350 355 344 338 331 341
135 133 131 128 125 121 117 112 110 110 113 111 109 105 87 62 42 29 25 34 30 30 26 18 14 10 5 3 5 8 11 15 16 11 1 4 0 351 0 347 342 344 346
131 128 126 123 120 118 116 117 117 115 110 105 101 92 78 47 28 14 24 32 30 30 23 18 12 6 2 1 5 5 9 12 10 9 8 7 9 17 16 4 352 354 355
128 126 122 122 122 119 120 119 117 109 104 100 90 74 58 34 17 15 24 25 24 18 20 13 10 5 3 4 7 6 7 12 12 13 12 12 16 23 22 11 6 4 353
125 123 122 121 119 118 119 115 110 103 98 92 77 59 48 38 26 22 18 17 12 11 10 10 6 2 2 6 10 10 13 19 17 20 18 21 22 25 25 13 15 13 9
124 120 118 116 114 112 110 106 101 95 91 82 73 66 59 53 46 36 28 24 18 17 9 5 3 2 9 15 15 16 19 23 21 24 24 27 31 30 29 22 26 34 33
122 117 114 113 110 105 101 97 93 84 78 76 71 64 55 48 45 38 31 28 25 22 15 11 9 18 30 25 28 29 24 24 23 25 26 28 32 32 34 31 26 27 34
119 117 114 109 107 106 102 93 86 83 76 69 63 56 45 35 27 19 19 19 18 14 15 20 23 27 30 34 35 32 29 26 25 28 28 28 29 33 36 34 31 30 32
118 116 113 111 109 102 100 94 80 74 70 66 62 55 47 44 35 31 28 28 23 25 34 37 35 34 32 32 32 31 28 27 26 28 30 29 29 32 33 34 36 37 31
117 115 113 111 107 105 101 96 93 84 70 62 57 54 50 45 39 35 35 43 39 41 45 42 38 36 35 33 32 29 26 27 27 28 28 30 29 32 34 33 33 34 37
114 114 113 111 109 106 103 101 97 88 77 65 60 57 52 46 46 46 49 48 46 47 46 42 39 36 35 34 33 32 31 28 29 29 29 29 29 28 32 34 35 31 34
114 112 110 109 107 104 99 94 88 83 77 71 58 55 52 53 53 52 50 52 46 43 44 41 39 36 35 34 34 33 32 32 30 27 28 27 27 28 30 32 32 35 33
109 109 108 103 101 98 94 92 88 81 74 65 58 50 44 46 51 50 48 48 46 43 41 40 38 36 36 34 34 34 33 32 32 31 28 25 24 21 25 28 32 32 33
113 108 104 101 98 96 93 89 87 82 74 64 55 48 46 50 50 48 46 46 43 41 40 39 37 35 35 34 33 34 33 32 32 30 28 26 22 20 20 27 29 31 34
112 108 105 102 99 96 92 87 82 78 74 69 57 49 48 50 51 47 46 44 42 40 38 37 36 35 33 32 32 31 30 29 31 29 27 25 22 23 20 19 27 29 30
113 111 107 104 101 97 92 88 83 76 70 66 61 51 45 49 50 48 46 46 43 41 38 37 35 34 33 33 31 30 27 26 28 24 26 24 20 23 21 18 18 28 32
111 109 110 108 106 101 94 89 81 74 70 65 61 57 47 46 48 46 45 44 44 41 39 37 36 34 32 32 31 28 25 23 24 22 28 24 20 22 22 21 21 22 25
114 114 111 108 106 101 95 89 84 77 73 67 63 59 51 48 48 46 44 43 42 40 39 36 34 32 31 30 28 27 26 24 24 21 27 26 23 25 24 20 20 21 29
114 113 112 111 107 101 93 86 80 77 72 65 61 58 53 47 47 46 45 43 41 40 39 37 36 33 31 30 27 24 23 23 25 25 31 27 25 23 25 22 22 20 23
Wind_Speed_850mb
40 38 35 39 48 44 40 26 26 28 26 25 20 18 14 15 20 22 21 17 17 20 24 28 34 36 34 34 39 48 52 49 53 68 64 60 58 55 50 50 48 48 47
44 41 41 57 48 40 35 33 29 32 28 21 16 10 12 17 17 15 15 18 21 22 28 33 36 36 31 38 46 50 52 55 59 67 67 60 55 53 54 56 57 57 61
52 46 50 52 47 43 45 45 35 26 22 16 11 8 9 8 14 17 18 20 23 27 33 36 37 31 32 40 46 50 54 58 60 63 70 62 58 57 64 67 63 62 66
64 61 58 56 53 53 47 38 31 23 15 8 6 4 8 15 18 19 21 22 26 31 31 33 33 36 41 45 48 47 51 57 60 58 58 65 63 65 61 58 59 61 71
74 69 67 60 53 44 39 33 25 16 8 4 9 15 20 22 21 23 26 31 31 30 30 30 34 37 40 44 49 50 52 56 59 58 57 58 59 59 58 62 62 67 70
75 73 65 57 50 45 35 26 18 12 11 15 19 23 24 24 24 25 30 33 28 29 27 31 38 41 39 43 50 53 57 55 57 56 59 55 54 51 56 59 58 66 60
67 65 59 53 45 39 31 24 20 19 21 23 26 25 23 22 22 25 27 28 29 32 33 40 43 45 49 52 54 56 57 57 52 50 58 50 51 49 51 55 53 54 60
63 58 51 45 42 37 31 27 27 28 27 29 26 23 19 19 18 20 23 25 31 34 37 40 45 50 53 56 57 57 60 56 59 58 49 44 40 42 44 50 52 53 61
61 56 50 44 42 37 34 35 34 31 31 28 27 22 17 14 14 15 18 22 29 33 38 41 46 49 52 55 58 58 62 64 68 62 49 41 33 33 40 47 50 55 59
60 55 50 45 41 39 39 39 36 32 30 28 23 19 17 15 13 16 22 20 25 30 36 41 46 49 51 54 57 60 62 66 71 74 66 52 46 43 47 49 48 49 47
57 53 50 46 43 42 39 36 31 28 26 24 21 18 18 18 19 26 26 24 25 28 32 40 46 49 49 50 52 55 60 65 66 72 70 58 54 55 59 53 43 35 42
56 53 50 47 45 39 33 32 28 25 22 21 18 18 21 22 25 28 27 25 27 32 35 38 42 43 43 45 45 48 52 59 65 73 71 66 63 66 69 59 45 34 29
56 55 52 48 44 39 35 33 30 26 24 24 22 23 26 29 31 31 30 30 29 32 35 35 36 35 36 40 41 47 57 63 67 71 73 70 68 66 68 66 55 45 40
58 56 53 49 49 46 44 42 40 40 38 35 32 30 28 28 31 35 34 32 33 36 35 36 33 34 44 38 40 50 58 64 67 69 68 70 70 70 72 71 71 64 57
59 59 57 53 50 48 47 45 41 40 35 34 34 34 31 35 38 37 38 39 40 35 33 36 42 47 47 47 45 50 56 61 65 67 70 71 72 75 77 74 68 68 66
61 58 54 51 47 43 42 44 45 43 41 42 42 38 37 38 33 35 35 33 30 28 36 46 53 56 55 55 54 51 56 62 65 67 68 69 71 73 75 75 75 73 72
56 53 49 46 41 37 35 37 42 38 39 42 41 41 41 37 35 35 31 32 33 38 49 55 56 57 57 55 56 57 56 59 63 67 69 68 68 69 72 73 74 73 79
52 49 47 43 39 36 33 30 28 27 29 36 42 42 41 37 34 31 32 38 42 49 54 55 56 57 57 56 56 57 57 57 57 63 68 69 68 68 70 71 71 70 69
51 48 44 42 39 37 34 33 32 31 31 30 29 36 37 33 35 38 41 47 49 52 54 54 54 54 56 57 57 57 59 62 63 63 63 67 69 68 67 67 66 65 64
46 42 42 41 38 36 35 34 31 30 31 30 33 36 31 33 40 45 47 50 50 51 52 53 53 54 55 57 58 59 61 63 65 66 66 66 65 61 62 64 64 64 61
42 40 39 38 38 36 35 35 33 31 30 32 36 37 34 33 39 42 44 47 48 49 50 51 52 54 55 56 58 59 62 63 65 66 66 65 64 60 55 62 63 61 59
41 39 38 39 38 37 35 33 30 28 28 29 29 31 34 34 40 39 41 44 45 46 48 50 51 53 55 57 58 59 61 63 65 66 65 63 62 60 55 53 61 61 60
43 43 41 40 37 34 33 30 29 26 26 28 28 28 29 35 38 38 38 40 41 43 45 47 49 51 53 53 56 57 58 59 62 61 61 60 57 60 55 53 52 61 59
41 38 36 35 33 31 29 27 27 25 25 25 27 30 29 31 35 36 37 38 40 42 43 45 47 49 51 52 53 54 54 52 53 53 55 54 55 57 54 53 50 53 59
36 35 33 32 29 28 26 23 23 22 23 23 24 27 26 29 31 33 34 36 38 40 42 43 46 47 49 49 50 49 48 48 49 49 51 52 52 56 54 50 49 47 53
34 32 29 27 26 25 23 21 20 20 21 22 23 26 25 27 29 31 32 34 35 37 38 40 41 42 43 46 47 47 49 49 48 46 50 51 53 54 54 52 51 47 48
Wind_Direction_850mb
174 175 180 180 179 176 178 156 165 177 193 198 221 243 261 293 309 312 320 339 11 12 4 356 353 345 351 358 351 352 354 341 325 334 335 338 340 341 338 337 331 326 321
173 173 168 166 170 175 170 173 182 183 187 202 216 245 289 303 314 350 30 38 30 11 2 1 356 358 9 7 10 8 360 350 337 329 340 345 348 344 342 342 341 338 326
160 158 154 157 162 157 160 169 168 176 178 184 207 259 298 356 51 63 58 39 26 16 7 8 17 26 18 9 3 360 356 354 350 344 343 340 339 343 342 342 340 335 334
145 140 138 143 150 154 158 163 164 168 184 209 263 323 52 75 78 68 52 39 22 15 22 32 24 21 13 8 2 355 349 348 346 341 340 344 342 344 344 339 340 349 347
141 141 143 147 149 149 150 150 154 156 161 122 82 88 94 95 84 70 49 35 33 36 35 28 28 20 15 10 3 360 352 350 345 340 342 342 343 345 345 344 343 348 353
143 142 145 146 145 141 142 143 136 130 113 99 106 110 110 100 79 57 43 34 38 32 28 23 20 19 21 13 7 1 1 357 352 346 348 345 343 347 349 348 349 348 339
143 140 140 139 138 135 132 129 123 115 108 114 119 123 115 97 73 53 43 44 41 37 30 28 22 23 21 16 11 7 4 7 5 357 350 348 346 351 351 349 348 346 343
139 135 135 135 131 127 125 120 111 106 111 116 117 116 98 83 67 50 38 40 37 32 28 23 20 18 13 9 11 10 9 10 12 6 357 353 353 350 355 344 338 331 341
135 133 131 128 125 121 117 112 110 110 113 111 109 105 87 62 42 29 25 34 30 30 26 18 14 10 5 3 5 8 11 15 16 11 1 4 0 351 0 347 342 344 346
131 128 126 123 120 118 116 117 117 115 110 105 101 92 78 47 28 14 24 32 30 30 23 18 12 6 2 1 5 5 9 12 10 9 8 7 9 17 16 4 352 354 355
128 126 122 122 122 119 120 119 117 109 104 100 90 74 58 34 17 15 24 25 24 18 20 13 10 5 3 4 7 6 7 12 12 13 12 12 16 23 22 11 6 4 353
125 123 122 121 119 118 119 115 110 103 98 92 77 59 48 38 26 22 18 17 12 11 10 10 6 2 2 6 10 10 13 19 17 20 18 21 22 25 25 13 15 13 9
124 120 118 116 114 112 110 106 101 95 91 82 73 66 59 53 46 36 28 24 18 17 9 5 3 2 9 15 15 16 19 23 21 24 24 27 31 30 29 22 26 34 33
122 117 114 113 110 105 101 97 93 84 78 76 71 64 55 48 45 38 31 28 25 22 15 11 9 18 30 25 28 29 24 24 23 25 26 28 32 32 34 31 26 27 34
119 117 114 109 107 106 102 93 86 83 76 69 63 56 45 35 27 19 19 19 18 14 15 20 23 27 30 34 35 32 29 26 25 28 28 28 29 33 36 34 31 30 32
118 116 113 111 109 102 100 94 80 74 70 66 62 55 47 44 35 31 28 28 23 25 34 37 35 34 32 32 32 31 28 27 26 28 30 29 29 32 33 34 36 37 31
117 115 113 111 107 105 101 96 93 84 70 62 57 54 50 45 39 35 35 43 39 41 45 42 38 36 35 33 32 29 26 27 27 28 28 30 29 32 34 33 33 34 37
114 114 113 111 109 106 103 101 97 88 77 65 60 57 52 46 46 46 49 48 46 47 46 42 39 36 35 34 33 32 31 28 29 29 29 29 29 28 32 34 35 31 34
114 112 110 109 107 104 99 94 88 83 77 71 58 55 52 53 53 52 50 52 46 43 44 41 39 36 35 34 34 33 32 32 30 27 28 27 27 28 30 32 32 35 33
109 109 108 103 101 98 94 92 88 81 74 65 58 50 44 46 51 50 48 48 46 43 41 40 38 36 36 34 34 34 33 32 32 31 28 25 24 21 25 28 32 32 33
113 108 104 101 98 96 93 89 87 82 74 64 55 48 46 50 50 48 46 46 43 41 40 39 37 35 35 34 33 34 33 32 32 30 28 26 22 20 20 27 29 31 34
112 108 105 102 99 96 92 87 82 78 74 69 57 49 48 50 51 47 46 44 42 40 38 37 36 35 33 32 32 31 30 29 31 29 27 25 22 23 20 19 27 29 30
113 111 107 104 101 97 92 88 83 76 70 66 61 51 45 49 50 48 46 46 43 41 38 37 35 34 33 33 31 30 27 26 28 24 26 24 20 23 21 18 18 28 32
111 109 110 108 106 101 94 89 81 74 70 65 61 57 47 46 48 46 45 44 44 41 39 37 36 34 32 32 31 28 25 23 24 22 28 24 20 22 22 21 21 22 25
114 114 111 108 106 101 95 89 84 77 73 67 63 59 51 48 48 46 44 43 42 40 39 36 34 32 31 30 28 27 26 24 24 21 27 26 23 25 24 20 20 21 29
114 113 112 111 107 101 93 86 80 77 72 65 61 58 53 47 47 46 45 43 41 40 39 37 36 33 31 30 27 24 23 23 25 25 31 27 25 23 25 22 22 20 23